Showing default

GEESAT 2-08, 58912

Orbit data source: Space-Track

GEESAT 2-08, 58912 is a payload satellite owned by GeeSpace (CN) in LEO that was launched on Fri, 02 Feb 2024 UTC via a CHANG ZHENG 2C launch vehicle from the Xichang Space Center, China (XSC). Payload-class satellites include a variety of spacecraft equipped with specific instruments for various scientific and technological missions. These include communications satellites like Starlink; space stations such as the ISS; scientific satellites like the Hubble; Earth observation satellites from companies like Planet Labs, Umbra, and HawkEye 360; GPS; miniature CubeSats for education and research; and military/defense satellites.

Loading next visibility...
Identifier
58912, 2024-023H
Orbit
LEO
Country
Flag of CNCN / PRC
Related business
Manufacturer
Taizhou Xingkong
Mission
Operational Commercial Navigation
Bus & Motor
GEESAT1, Unknown motor
Mass
130 kg wet, 130 kg dry
Launch date (UTC)
2024-02-02 (2 years ago)
Launch vehicle
CHANG ZHENG 2C
Launch site
Xichang Space Center, China (XSC)
Object type
Payload
Rocket body
Debris
Shape & HBR
Box + 2 Pan, 1.0 m
Radar Cross Section
0.833 m², Medium (>0.1 m² and < 1m²)

Expand to show TLE details & history
Last TLE update: 18 hours ago

TLE from 18 hours ago
0 GEESAT 2-08
1 58912U 24023H   25249.32359701  .00005532  00000-0  59833-3 0  9994
2 58912  49.9870 230.8939 0014050  61.1300 299.1049 14.89479793 86749
Epoch: 2025-09-06T07:45Z
TLE epoch observation values (Epoch: 2025-09-06T07:45:58.781Z)
Latitude
-0.00001°
Longitude
128.7399°
Altitude
595.346 km
Speed
7.566 km/s
True Right ascension
15h 23m 34s
True Declination
0° 00' 00"
Sunlit
Object was in daylight at epoch
Visualization orbit readout
Latitude
Unknown
Longitude
Unknown
Altitude
Unknown
Speed
Unknown
Apparent Right ascension
Unknown
Apparent Declination
Unknown
Sunlit
N/A
Visualization observer readout
Local Sidereal Time
18:03:47
Azimuth
Unknown
Elevation
Unknown
Doppler factor
Unknown
Orbital elements
Apogee altitude
610.127 km
Perigee altitude
590.517 km
Semi-major axis
6,978.459 km
Eccentricity
0.00141
Inclination
49.987°
RAAN
230.8939°
Arg. of periapsis
61.13°
True anomaly
298.96411°
Mean anomaly
299.1049°
Eccentric anomaly
299.03452°
Mean motion
3.72309 °/min
Orbital period
96.69 mins
BSTAR
0.00059833
Loading maneuver chart data...
Computing Atmospheric mass density...
Loading historical data...
Loading historical data...
Loading historical data...
Loading historical data...
Loading historical data...
Loading historical data...
Loading historical data...

Documentation

Showing up to 5 results
|